Annette Island, AK

2:30 AM AKST on December 18, 2017 (GMT -0900)
Annette Island

Weather History for PANT - January, 2013

Change the Weather History Date:

Thursday, January 24, 2013

  Actual Average Record
Temperature  
Mean Temperature 42 °F 37 °F  
Max Temperature 44 °F 42 °F 51 °F (2015)
Min Temperature 40 °F 33 °F 3 °F (1950)
Degree Days  
Heating Degree Days 23 28  
Month to date heating degree days 606 672  
Since 1 July heating degree days 3649 3583  
Cooling Degree Days 0    
Month to date cooling degree days 0  
Year to date cooling degree days 0  
Moisture  
Dew Point 38 °F    
Average Humidity 0    
Maximum Humidity 0    
Minimum Humidity 0    
Precipitation  
Precipitation 0.20 in 0.35 in 1.39 in (2012)
Month to date precipitation 6.01 8.47  
Year to date precipitation 6.01 8.47  
Snow  
Snow 0.00 in 0.20 in 5.20 in (1956)
Month to date snowfall T 6.0  
Since 1 July snowfall 11.4 17.7  
Snow Depth 0.00 in    
Sea Level Pressure  
Sea Level Pressure 29.64 in    
Wind  
Wind Speed 13 mph (SE)    
Max Wind Speed 24 mph    
Max Gust Speed 36 mph    
Visibility 10 miles    
Events Rain    
T = Trace of Precipitation, MM = Missing Value Source: NWS Daily Summary

Daily Weather History Graph

Daily Weather History Graph

Search for Another Location

Airport or City:

Trip Planner

Search our weather history database for the weather conditions in past years. The results will help you decide how hot, cold, wet, or windy it might be!

Date:

Astronomy

Jan. 24, 2013 Rise Set
Actual Time 7:49 AM AKST 4:07 PM AKST
Civil Twilight 7:08 AM AKST 4:49 PM AKST
Nautical Twilight 6:23 AM AKST 5:33 PM AKST
Astronomical Twilight 5:40 AM AKST 6:16 PM AKST
Moon 2:10 PM AKST (1/24) 5:59 AM AKST (1/24)
Length of Visible Light 9h 40m
Length of Day
8h 18m
Waxing Gibbous, 95% of the Moon is Illuminated
Jan 24
Waxing Gibbous
Jan 26
Full
Feb 3
Last Quarter
Feb 9
New
Feb 17
First Quarter

Hourly Weather History & Observations

Time (AKST) Temp. Windchill Dew Point Humidity Pressure Visibility Wind Dir Wind Speed Gust Speed Precip Events Conditions
12:51 AM 42.8 °F 38.6 °F 39.2 °F 87% 29.82 in 10.0 mi SE 6.9 mph - 0.00 in   Overcast
12:53 AM 42.1 °F 38.4 °F 39.0 °F 89% 29.83 in 10.0 mi SE 5.8 mph - 0.00 in   Overcast
1:53 AM 43.0 °F 39.5 °F 37.0 °F 80% 29.83 in 10.0 mi Variable 5.8 mph - N/A   Overcast
2:07 AM 42.8 °F 39.3 °F 37.4 °F 81% 29.82 in 10.0 mi SSE 5.8 mph - 0.00 in   Overcast
3:53 AM 43.0 °F 36.4 °F 39.0 °F 86% 29.81 in 10.0 mi SSE 12.7 mph 18.4 mph 0.01 in Rain Light Rain
4:38 AM 42.8 °F 36.2 °F 39.2 °F 87% 29.79 in 10.0 mi SSE 12.7 mph 20.7 mph 0.01 in Rain Light Rain
4:49 AM 42.8 °F 37.5 °F 39.2 °F 87% 29.79 in 10.0 mi SE 9.2 mph - 0.01 in Rain Light Rain
4:53 AM 43.0 °F 35.7 °F 39.9 °F 89% 29.80 in 10.0 mi SE 15.0 mph 20.7 mph 0.01 in Rain Light Rain
5:53 AM 41.0 °F 33.5 °F 39.0 °F 93% 29.78 in 10.0 mi ESE 13.8 mph 24.2 mph 0.02 in Rain Light Rain
6:33 AM 41.0 °F 33.5 °F 37.4 °F 87% 29.76 in 10.0 mi ESE 13.8 mph 23.0 mph 0.03 in Rain Light Rain
6:53 AM 41.0 °F 33.1 °F 37.9 °F 89% 29.77 in 10.0 mi SE 15.0 mph 21.9 mph 0.04 in Rain Light Rain
7:17 AM 41.0 °F 32.5 °F 37.4 °F 87% 29.75 in 10.0 mi SE 17.3 mph 24.2 mph 0.00 in Rain Light Rain
7:46 AM 41.0 °F 33.1 °F 37.4 °F 87% 29.75 in 10.0 mi SE 15.0 mph 23.0 mph 0.01 in Rain Light Rain
7:53 AM 39.9 °F 31.8 °F 37.9 °F 93% 29.75 in 10.0 mi ESE 15.0 mph 24.2 mph 0.01 in Rain Light Rain
8:23 AM 39.2 °F 31.6 °F 37.4 °F 93% 29.73 in 10.0 mi ESE 12.7 mph 20.7 mph 0.01 in Rain Light Rain
8:53 AM 39.9 °F 32.1 °F 37.0 °F 89% 29.73 in 10.0 mi ESE 13.8 mph 24.2 mph 0.02 in Rain Light Rain
9:53 AM 41.0 °F 33.1 °F 37.0 °F 86% 29.70 in 10.0 mi ESE 15.0 mph 23.0 mph 0.00 in Rain Light Rain
10:53 AM 42.1 °F 34.9 °F 36.0 °F 79% 29.67 in 10.0 mi ESE 13.8 mph 25.3 mph 0.00 in Rain Light Rain
11:53 AM 43.0 °F 34.8 °F 35.1 °F 74% 29.63 in 10.0 mi ESE 18.4 mph 32.2 mph 0.00 in Rain Light Rain
12:41 PM 42.8 °F 34.8 °F 35.6 °F 76% 29.60 in 10.0 mi ESE 17.3 mph 26.5 mph 0.01 in Rain Light Rain
12:53 PM 41.0 °F 32.2 °F 36.0 °F 82% 29.60 in 9.0 mi ESE 18.4 mph 27.6 mph 0.01 in Rain Light Rain
1:53 PM 41.0 °F 33.9 °F 37.0 °F 86% 29.55 in 8.0 mi ESE 12.7 mph 26.5 mph 0.03 in Rain Light Rain
2:53 PM 39.9 °F 31.8 °F 36.0 °F 86% 29.49 in 8.0 mi ESE 15.0 mph 27.6 mph 0.03 in Rain Light Rain
3:53 PM 39.9 °F 30.8 °F 35.1 °F 83% 29.44 in 7.0 mi ESE 18.4 mph 33.4 mph 0.05 in Rain Light Rain
4:53 PM 39.9 °F 30.2 °F 36.0 °F 86% 29.40 in 9.0 mi East 20.7 mph 34.5 mph 0.07 in Rain Light Rain
5:53 PM 41.0 °F 32.2 °F 36.0 °F 82% 29.38 in 8.0 mi ESE 18.4 mph 34.5 mph 0.04 in Rain Light Rain
6:53 PM 41.0 °F 31.9 °F 36.0 °F 82% 29.39 in 10.0 mi ESE 19.6 mph 32.2 mph 0.01 in Rain Light Rain
7:53 PM 42.1 °F 32.3 °F 37.0 °F 82% 29.38 in 9.0 mi SE 24.2 mph 40.3 mph 0.03 in Rain Light Rain
8:53 PM 42.1 °F 32.1 °F 37.9 °F 85% 29.37 in 10.0 mi SE 25.3 mph 41.4 mph 0.02 in Rain Light Rain
9:53 PM 44.1 °F 34.8 °F 39.9 °F 85% 29.40 in 10.0 mi SE 25.3 mph 38.0 mph 0.00 in   Overcast
10:53 PM 45.0 °F 37.1 °F 39.9 °F 82% 29.43 in 10.0 mi SSE 19.6 mph 29.9 mph N/A   Overcast
11:53 PM 45.0 °F 37.1 °F 39.9 °F 82% 29.46 in 10.0 mi SSE 19.6 mph 33.4 mph 0.00 in   Overcast